Find Local Weather

World > North America > United States > Arizona

Prescott Valley, Arizona Regional Weather

Lat: 34.61N, Lon: 112.32W
Wx Zone: AZZ008
Feedback
Expires:201809232200;;103611
ASUS45 KPSR 232110
RWRAZ 

ARIZONA HOURLY REGIONAL WEATHER ROUNDUP
NATIONAL WEATHER SERVICE PHOENIX AZ
200 PM MST SUN SEP 23 2018

NOTE: FAIR INDICATES FEW OR NO CLOUDS BELOW 12,000 FEET WITH NO
SIGNIFICANT WEATHER AND/OR OBSTRUCTIONS TO VISIBILITY.


AZZ004>008-015-016-018-232200-
NORTH CENTRAL ARIZONA
  
CITY           SKY/WX    TMP DP  RH WIND       PRES   REMARKS
GRAND CANYON   MOSUNNY   79  32  18 SW15      30.18F                  
WILLIAMS       MOSUNNY   77  28  16 W9G17     30.17F                  
PRESCOTT       MOSUNNY   85  32  15 SW8G17    30.07F                  
FLAGSTAFF      MOSUNNY   73  36  25 S13       30.20F                  
PAYSON         SUNNY     84  34  16 CALM      30.09F                  
PAGE           MOSUNNY   90  37  15 SW8       29.96F                  
$$


SKY/WX - Weather  TMP - Temperature  DP - Dew Point  RH - Relative Humidity
WIND - Wind Direction/Speed PRES - Barometric Pressure